Current Version              Previous Version:    01  02  03  04  05  06  07  08  09  10  11  12  13  14  15  16  17  18  19  20  21  22  23  24  25  26  27  28  29  30  
   31  32  33  34  35  36  37  38  39  40  41  42  43  44  45  46  47  48  49  50  51  52  53  54  55  56  57  58  59  60  

[Printable]
143
ASUS44 KLUB 261210
RWRTX
WEST TEXAS WEATHER ROUNDUP
NATIONAL WEATHER SERVICE LUBBOCK TX
600 AM CST MON JAN 26 2015

NOTE: "FAIR" INDICATES FEW OR NO CLOUDS BELOW 12,000 FEET WITH NO
SIGNIFICANT WEATHER AND/OR OBSTRUCTIONS TO VISIBILITY.

TXZ004-006>008-010-012-014-016-OKZ002-261300-
TEXAS PANHANDLE/OKLAHOMA PANHANDLE

CITY           SKY/WX    TMP DP  RH WIND       PRES   REMARKS
AMARILLO       CLEAR     39  30  70 W15       30.23S WCI  31
BORGER         CLEAR     40  30  67 SW10      30.20F WCI  33
CANADIAN       CLEAR     44  33  67 SW7       30.16F
DALHART        CLEAR     35  27  72 W12       30.22F WCI  27
DUMAS          CLEAR     35  28  76 W15       30.20S WCI  25
GUYMON         CLEAR     39  28  64 W10       30.15F WCI  32
HEREFORD       CLEAR     33  30  88 W7        30.25F WCI  27
PAMPA          CLEAR     36  31  82 W10       30.20F WCI  28
PERRYTON         N/A     36  29  78 W12       30.15F WCI  27
$$

TXZ026-029-035-045-048-261300-
SOUTHERN PANHANDLE/SOUTH PLAINS/ROLLING PLAINS

CITY           SKY/WX    TMP DP  RH WIND       PRES   REMARKS
CHILDRESS      CLEAR     42  32  67 NW12      30.19S
SEMINOLE       CLEAR     35  28  75 NW6       30.29R WCI  30
LUBBOCK        CLEAR     32  28  85 W6        30.24S WCI  26
PLAINVIEW      CLEAR     37  31  78 NW10      30.22F WCI  30
SNYDER         CLEAR    N/A N/A N/A SW10      30.25R
$$

TXZ052-054-060>062-072-078-127-140-154-169-261300-
PERMIAN BASIN/CONCHO VALLEY/BIG COUNTRY/EDWARDS PLATEAU

CITY           SKY/WX    TMP DP  RH WIND       PRES   REMARKS
ABILENE        CLEAR     42  28  57 N3        30.23R
BIG SPRING     PTCLDY    33  29  83 CALM      30.31R
BRADY          CLEAR     39  32  75 W7        30.23S WCI  34
BROWNWOOD      CLEAR     34  30  86 CALM      30.23R
JUNCTION       PTCLDY    32  29  88 SW3       30.27R
MIDLAND        CLEAR     38  29  70 W6        30.28R WCI  33
ODESSA         PTCLDY    39  28  64 W7        30.28S WCI  34
SAN ANGELO     PTCLDY    37  31  78 W7        30.26R WCI  32
SONORA         PTCLDY    30  28  93 CALM      30.32S
SWEETWATER     CLEAR     44  31  59 SW9       30.26S
WINK           MOCLDY    32  26  78 N7        30.27F WCI  26
$$

TXZ055-058-074-075-080-082-261300-
FAR WEST/SOUTHWEST MOUNTAINS/TRANS PECOS

CITY           SKY/WX    TMP DP  RH WIND       PRES   REMARKS
ALPINE         CLOUDY    36  28  70 SW5       30.36S WCI  32
DRYDEN           N/A     41  33  73 CALM      30.27S
EL PASO        CLOUDY    39  27  62 N12       30.29F WCI  32
FORT STOCKTON  CLOUDY    43  31  62 SW12      30.28S
MARFA          CLOUDY    30  27  86 N6        30.32S WCI  24
PECOS          CLOUDY    32  30  92 CALM      30.29F
PRESIDIO       FAIR      43  33  68 NW7       30.29S
$$

TXZ014-016-019-021>030-083-261300
TEXAS TECH WEST TEXAS MESONET/TEXAS PANHANDLE/NORTHERN SOUTH PLAINS

CITY           SKY/WX    TMP DP  RH WIND       PRES   REMARKS
ABERNATHY 5ENE   N/A     35  30  82 NW7       30.25S WCI  29
AMARILLO 9NNE    N/A     28  26  94 S2        30.23F
AMARILLO 7SSE    N/A     36  28  73 W6        30.23F WCI  31
AMHERST 1NE      N/A     36  29  75 NW12      30.25S WCI  28
BOOTLEG 11WNW    N/A     34  25  69 W10       30.28S WCI  26
CANADIAN 6E      N/A     38  31  78 W10       30.14F WCI  30
CAPROCK CYN SP   N/A     48  28  46 W21       30.20F
CHILDRESS 2NNE   N/A     44  32  63 W14       30.17F
CLARENDON 2WSW   N/A     44  31  60 NW16      30.20S
CLAUDE 12SW      N/A     40  29  65 W13       30.21F WCI  32
DIMMITT 2NE      N/A     32  27  83 W9        30.25S WCI  24
FLOYDADA 2NNE    N/A     34  29  83 W10       30.22F WCI  26
FRIONA 2NE       N/A     32  27  81 W9        30.26S WCI  25
GOODLETT 3W      N/A     35  31  85 SW8       30.17F WCI  29
HART 3N          N/A     32  28  84 W5        30.24F WCI  27
HEREFORD 2NW     N/A     33  28  81 W8        30.24F WCI  26
MCLEAN 1E        N/A     41  31  66 W15       30.16F
MEMPHIS 1NE      N/A     50  31  47 W10       30.17S
MULESHOE 2SSW    N/A     30  28  89 W8        30.27S WCI  23
OLTON 6S         N/A     33  28  82 W10       30.25S WCI  25
PALO DURO SP     N/A     34  28  76 W10       30.24S WCI  26
PAMPA 2E         N/A     38  31  77 W13       30.18F WCI  30
PLAINVIEW 1S     N/A     39  29  68 W10       30.23S WCI  32
SILVERTON 7ESE   N/A     37  29  72 W9        30.23S WCI  31
TULIA 2ENE       N/A     35  29  79 W13       30.23F WCI  27
TURKEY 2WSW      N/A     44  29  57 W2        30.19S
UMBARGER 3NNE    N/A     33  28  80 W9        30.24F WCI  26
$$

TXZ033>036-039>041-045>048-261300
TEXAS TECH WEST TEXAS MESONET/SOUTH PLAINS

CITY           SKY/WX    TMP DP  RH WIND       PRES   REMARKS
AIKEN 3WSW       N/A     37  29  75 W12       30.24F WCI  29
ANDREWS 2NE      N/A     41  27  57 W8        30.28S
ANTON 6SSW       N/A     32  29  88 W9        30.26R WCI  24
BROWNFIELD 2S    N/A     34  26  75 W12       30.26S WCI  25
DENVR CTY 7WNW   N/A     32  26  77 W7        30.27R WCI  26
GAIL 2ESE        N/A     35  29  76 W5        30.25R WCI  31
LAMESA 2SE       N/A     34  28  79 W6        30.28S WCI  29
LEVELLAND 4S     N/A     32  26  79 W8        30.25F WCI  24
LUBBOCK 3WNW     N/A     33  28  82 W6        30.26R WCI  28
MORTON 1ENE      N/A     32  28  83 W9        30.26S WCI  24
ODONNELL 1N      N/A     34  27  75 W12       30.26R WCI  26
PLAINS 3N        N/A     31  25  80 NW8       30.27S WCI  23
RALLS 1SE        N/A     37  29  72 NW12      30.24S WCI  29
REESE CENTER     N/A     31  27  86 W7        30.26R WCI  24
SEAGRAVES 1SW    N/A     31  26  83 W6        30.27S WCI  25
SEMINOLE 2NNE    N/A     33  27  80 W6        30.28R WCI  27
SLATON 2NE       N/A     35  29  78 NW10      30.24S WCI  27
SNYDER 3E        N/A     37  29  73 S5        30.24R WCI  34
SUNDOWN 8SW      N/A     31  25  79 W8        30.26F WCI  23
TAHOKA 3NNE      N/A     33  28  79 NW8       30.25R WCI  27
WOLFFORTH 6SSW   N/A     33  32  96 NW8       30.25S WCI  25
$$

TXZ031-032-036>038-042>044-261300-
TEXAS TECH WEST TEXAS MESONET/ROLLING PLAINS

CITY           SKY/WX    TMP DP  RH WIND       PRES   REMARKS
ASPERMONT 3NE    N/A     41  32  69 W8        30.21S
FLUVANNA 3WNW    N/A     41  27  56 W7        30.24R
GRAHAM 5SSW      N/A     36  28  71 W16       30.23S WCI  27
GUTHRIE 10WSW    N/A     45  29  53 SW5       30.19S
HASKELL 1NW      N/A     39  31  75 W5        30.21S
JAYTON 1SSE      N/A     37  31  79 W9        30.22S WCI  30
KNOX CITY 3NW    N/A     35  30  83 SW6       30.21F WCI  30
LK A HENRY 1NW   N/A     35  29  80 W7        30.23S WCI  29
NORTHFIELD 1S    N/A     42  32  68 W9        30.20S
ODELL 4ENE       N/A     35  33  90 SW5       30.18S WCI  31
PADUCAH 10SW     N/A     46  30  54 W15       30.18F
POST 1NE         N/A     42  27  55 W7        30.23S
RRING SPRGS 3N   N/A     45  29  53 W15       30.20S
SEYMOUR 3NW      N/A     33  31  94 SW2       30.20S
SPUR 1W          N/A     41  29  61 NW7       30.20F
WEINERT 2NNE     N/A     37  30  75 SW5       30.21F WCI  34
WHITE RVR 6NE    N/A     43  28  54 NW17      30.21S
$$

TXZ052-054-060>062-072-078-127-140-154-169-261300-
TEXAS TECH WEST TEXAS MESONET/PERMIAN BASIN/
CONCHO VALLEY/BIG COUNTRY/EDWARDS PLATEAU

CITY           SKY/WX    TMP DP  RH WIND       PRES   REMARKS
COYANOSA 2N      N/A     34  31  88 W5        30.29S WCI  30
JUNCTION 1SSW    N/A     32  29  89 S2        30.28S
MERTZON 3NNE     N/A     33  29  85 S3        30.28S
SAN ANGELO 7NW   N/A     36  30  78 W6        30.27R WCI  31
STRLNG CT 4WSW   N/A     30  28  91 CALM      30.28R
ST LAWRNCE 5SW   N/A     33  28  83 W5        30.28R WCI  28
SWEETWATR 11SW   N/A     37  31  77 SW9       30.26R WCI  31
WALL 1E          N/A     35  30  80 W6        30.26S WCI  30
$$

TXZ055-058-074-075-080-082-261300-
TEXAS TECH WEST TEXAS MESONET/FAR WEST/SOUTHWEST MOUNTAINS/TRANS PECOS

CITY           SKY/WX    TMP DP  RH WIND       PRES   REMARKS
PRSMN GAP BBNP   N/A     40  32  74 W2        30.29S
GUADLPE MTN NP   N/A     44  17  34 NW7       30.32S
$$



871
ASUS44 KEWX 261210
RWRTX
SOUTH TEXAS REGIONAL WEATHER ROUNDUP
NATIONAL WEATHER SERVICE AUSTIN/SAN ANTONIO TX
600 AM CST MON JAN 26 2015

NOTE: "FAIR" INDICATED FEW OR NO CLOUDS BELOW 12,000 FEET WITH NO
SIGNIFICANT WEATHER AND/OR OBSTRUCTIONS TO VISIBILITY.

* - THESE STATIONS ARE NOT NWS OR FAA STATIONS...AND ARE NOT SUBJECT
    TO NWS AND FAA QUALITY CONTROL.

TXZ171-172-183>190-261300-
TEXAS HILL COUNTRY AND EDWARDS PLATEAU

CITY           SKY/WX    TMP DP  RH WIND       PRES   REMARKS
JUNCTION       PTCLDY    32  29  88 SW3       30.27R
6HR MIN TEMP:  32; 6HR MAX TEMP:  37;

*LLANO         CLEAR     43  32  65 CALM      30.28R
BURNET         CLEAR     43  32  65 W9        30.25R WCI  38
6HR MIN TEMP:  41; 6HR MAX TEMP:  56;

*HORSESHOE BAY CLEAR     40  33  75 CALM      30.23R
6HR MIN TEMP:  37; 6HR MAX TEMP:  49;

*KERRVILLE     PTCLDY    34  31  90 CALM      30.26S
6HR MIN TEMP:  33; 6HR MAX TEMP:  38;

*FREDERICKSBRG CLEAR     36  31  81 CALM      30.24S
6HR MIN TEMP:  35; 6HR MAX TEMP:  41;

*ROCKSPRINGS   PTCLDY    45  28  53 W3        30.29S
*BOERNE STAGE  CLEAR     45  30  57 W3        30.25S
*CASTROVILLE   CLEAR     41  33  72 NW9       30.26S WCI  36
HONDO          PTCLDY    40  32  73 N7        30.27S WCI  35
6HR MIN TEMP:  39; 6HR MAX TEMP:  45;

*UVALDE        PTCLDY    40  34  80 NW3       30.28R
6HR MIN TEMP:  38; 6HR MAX TEMP:  49;

DEL RIO        MOCLDY    41  37  86 NW5       30.27S WCI  38
6HR MIN TEMP:  41; 6HR MAX TEMP:  49;

LAUGHLIN AFB   MOCLDY    38  34  85 NW6       30.27S WCI  34
6HR MIN TEMP:  38; 6HR MAX TEMP:  45;

CARRIZO SPRGS  PTCLDY    43  36  75 NW5       30.26R WCI  40
$$

TXZ173-191>194-202-209-217>225-228-261300-
CENTRAL AND SOUTH CENTRAL TEXAS

CITY           SKY/WX    TMP DP  RH WIND       PRES   REMARKS
GEORGETOWN     NOT AVBL
AUSTIN/BERGSTM CLEAR     38  32  79 CALM      30.24R
6HR MIN TEMP:  38; 6HR MAX TEMP:  49;

AUSTIN/MABRY   CLEAR     47  33  58 NW7       30.25R WCI  44
6HR MIN TEMP:  47; 6HR MAX TEMP:  57;

*AUSTIN/EXEC   CLEAR     45  32  61 W7        30.24R WCI  41
*LAGO VISTA    CLEAR     47  32  55 W7        30.23R WCI  44
6HR MIN TEMP:  47; 6HR MAX TEMP:  60;

SAN MARCOS     CLEAR     41  32  70 NW9       30.23R WCI  35
6HR MIN TEMP:  39; 6HR MAX TEMP:  46;

NEW BRAUNFELS  CLEAR     41  33  73 W7        30.22R WCI  36
6HR MIN TEMP:  41; 6HR MAX TEMP:  46;

RANDOLPH AFB   CLEAR     42  33  69 W5        30.24R WCI  39
6HR MIN TEMP:  40; 6HR MAX TEMP:  46;

PT SAN ANTONIO CLEAR     43  33  69 NW2       30.22S
6HR MIN TEMP:  38; 6HR MAX TEMP:  48;

SAN ANTONIO    PTCLDY    40  33  76 NW6       30.24S WCI  36
6HR MIN TEMP:  40; 6HR MAX TEMP:  48;

STINSON FIELD  CLEAR     38  34  85 W3        30.23R
6HR MIN TEMP:  38; 6HR MAX TEMP:  52;

*PLEASANTON    CLEAR     40  35  80 W6        30.25S WCI  36
6HR MIN TEMP:  39; 6HR MAX TEMP:  48;

*LA GRANGE     CLEAR     41  35  79 CALM      30.22R
6HR MIN TEMP:  41; 6HR MAX TEMP:  57;

*GIDDINGS      NOT AVBL
*GONZALES      CLEAR     44  34  67 N3        30.23R
6HR MIN TEMP:  43; 6HR MAX TEMP:  49;

$$

TXZ163>164-176>182-195>201-210>213-226-227-235-261300-
SOUTHEAST TEXAS

CITY           SKY/WX    TMP DP  RH WIND       PRES   REMARKS
COLLEGE STN    CLEAR     44  29  55 N5        30.20R WCI  42
6HR MIN TEMP:  41; 6HR MAX TEMP:  54;

*BRYAN         CLEAR     44  29  57 CALM      30.21R
6HR MIN TEMP:  42; 6HR MAX TEMP:  49;

*CALDWELL      CLEAR     43  30  61 N6        30.24S WCI  39
*CROCKETT      CLEAR     36  34  93 CALM      30.23R
*BRENHAM       CLEAR     45  32  60 W3        30.22R
6HR MIN TEMP:  45; 6HR MAX TEMP:  56;

HUNTSVILLE     CLEAR     42  28  57 CALM      30.19R
6HR MIN TEMP:  42; 6HR MAX TEMP:  55;

CONROE         CLEAR     46  29  51 N7        30.19R WCI  42
6HR MIN TEMP:  39; 6HR MAX TEMP:  55;

HOUSTON BUSH   PTCLDY    48  29  47 NW5       30.19R WCI  46
6HR MIN TEMP:  47; 6HR MAX TEMP:  57;

HOUSTON HOBBY  PTCLDY    50  28  42 NW3       30.19R
6HR MIN TEMP:  50; 6HR MAX TEMP:  57;

*HOUSTON SW AP CLEAR     41  35  79 W6        30.22R WCI  37
6HR MIN TEMP:  39; 6HR MAX TEMP:  51;

PEARLAND       CLEAR     40  33  76 W3        30.21R
6HR MIN TEMP:  39; 6HR MAX TEMP:  59;

HOUSTON HOOKS  CLEAR     48  28  46 NW3       30.20R
6HR MIN TEMP:  48; 6HR MAX TEMP:  57;

ELLINGTON FLD  PTCLDY    52  27  37 NW6       30.20R
SUGAR LAND     CLEAR     41  31  67 W7        30.20R WCI  36
6HR MIN TEMP:  38; 6HR MAX TEMP:  54;

*HOUSTON EXEC    N/A    N/A N/A N/A MISG        N/A
*CLEVELAND MUN NOT AVBL
*WHARTON       CLEAR     43  36  74 NW7       30.23R WCI  39
6HR MIN TEMP:  42; 6HR MAX TEMP:  48;

*COLUMBUS      FAIR      42  34  74 NW3       30.22R
6HR MIN TEMP:  39; 6HR MAX TEMP:  46;

$$

TXZ214>216-236>238-261300-
THE UPPER TEXAS COAST

CITY           SKY/WX    TMP DP  RH WIND       PRES   REMARKS
*ORANGE        CLEAR     47  32  56 NW7       30.16S WCI  43
6HR MIN TEMP:  47; 6HR MAX TEMP:  56;

PORT ARTHUR    CLEAR     48  32  53 N12       30.14R WCI  43
6HR MIN TEMP:  48; 6HR MAX TEMP:  57;

GALVESTON      CLEAR     46  40  79 SW6       30.20R WCI  43
6HR MIN TEMP:  45; 6HR MAX TEMP:  55;

ANGLETON       CLEAR     46  34  62 NW5       30.21R WCI  44
6HR MIN TEMP:  43; 6HR MAX TEMP:  52;

*BAY CITY      CLEAR     44  38  80 NW5       30.22R WCI  41
PALACIOS       CLEAR     43  38  82 W8        30.23R WCI  38
6HR MIN TEMP:  43; 6HR MAX TEMP:  50;

$$

TXZ229>234-239>247-261300-
TEXAS COASTAL BEND AND RIO GRANDE PLAINS

CITY           SKY/WX    TMP DP  RH WIND       PRES   REMARKS
VICTORIA       CLEAR     42  35  76 NW7       30.24R WCI  38
6HR MIN TEMP:  41; 6HR MAX TEMP:  49;

*BEEVILLE      CLEAR     51  35  55 N7        30.23S
ROCKPORT       CLEAR     49  41  74 NW3       30.23S
6HR MIN TEMP:  48; 6HR MAX TEMP:  55;

*PORT ARANSAS  CLEAR     50  43  77 CALM      30.23S
6HR MIN TEMP:  48; 6HR MAX TEMP:  53;

*PORT LAVACA   CLEAR     44  38  81 NW5       30.23S WCI  41
6HR MIN TEMP:  43; 6HR MAX TEMP:  53;

*INGLESIDE     CLEAR     48  39  71 CALM      30.23S
CORPUS CHRISTI PTCLDY    43  39  86 W7        30.24S WCI  39
6HR MIN TEMP:  42; 6HR MAX TEMP:  49;

CORPUS NAS     MOCLDY    45  42  89 W8        30.24R WCI  41
6HR MIN TEMP:  44; 6HR MAX TEMP:  53;

*ROBSTOWN      NOT AVBL
ALICE          CLEAR     46  39  76 W5        30.25R WCI  44
6HR MIN TEMP:  46; 6HR MAX TEMP:  51;

KINGSVILLE NAS PTCLDY    45  40  82 W3        30.26R
6HR MIN TEMP:  44; 6HR MAX TEMP:  52;

COTULLA        PTCLDY    43  40  89 W5        30.27R WCI  40
6HR MIN TEMP:  43; 6HR MAX TEMP:  50;

*FAITH RANCH   PTCLDY    45  37  76 N7        30.27R WCI  41
LAREDO         NOT AVBL
$$

TXZ248>255-261300-
DEEP SOUTH TEXAS

CITY           SKY/WX    TMP DP  RH WIND       PRES   REMARKS
BROWNSVILLE    MOCLDY    51  43  74 NW5       30.25R
6HR MIN TEMP:  50; 6HR MAX TEMP:  57;

PORT ISABEL    MOCLDY    52  44  74 NW6       30.24R
6HR MIN TEMP:  50; 6HR MAX TEMP:  54;

*SOUTH PADRE   MOCLDY   N/A N/A N/A N3        30.24R
HARLINGEN      MOCLDY    49  42  77 NW7       30.25R WCI  46
6HR MIN TEMP:  48; 6HR MAX TEMP:  54;

*HEBBRONVILLE  MOCLDY    48  39  71 NW8       30.27R HAZE    WCI  44
MCALLEN        MOCLDY    49  44  83 CALM      30.26R
6HR MIN TEMP:  49; 6HR MAX TEMP:  56;